Time,TemperatureF,DewpointF,PressureIn,WindDirection,WindDirectionDegrees,WindSpeedMPH,WindSpeedGustMPH,Humidity,HourlyPrecipIn,Conditions,Clouds,dailyrainin,SoftwareType,DateUTC
2013-09-29 00:01:00,57.0,52.2,30.15,WNW,301,0.0,0.0,84,0.00,,,0.01,WUHU216DAVISVP2,2013-09-29 04:01:00,
2013-09-29 00:06:00,56.9,52.1,30.15,WNW,301,0.0,0.0,84,0.00,,,0.01,WUHU216DAVISVP2,2013-09-29 04:06:00,
2013-09-29 00:12:00,56.9,52.1,30.14,WNW,301,0.0,0.0,84,0.00,,,0.00,WUHU216DAVISVP2,2013-09-29 04:12:00,
2013-09-29 00:17:00,56.7,52.2,30.14,WNW,301,0.0,0.0,85,0.00,,,0.00,WUHU216DAVISVP2,2013-09-29 04:17:00,
2013-09-29 00:22:00,56.7,52.2,30.14,WNW,301,0.0,0.0,85,0.00,,,0.00,WUHU216DAVISVP2,2013-09-29 04:22:00,
2013-09-29 00:27:00,56.7,52.2,30.14,WNW,301,0.0,0.0,85,0.00,,,0.00,WUHU216DAVISVP2,2013-09-29 04:27:00,
2013-09-29 00:32:00,56.5,52.0,30.14,WNW,301,0.0,0.0,85,0.00,,,0.00,WUHU216DAVISVP2,2013-09-29 04:32:00,
2013-09-29 00:37:00,56.3,51.8,30.14,WNW,301,0.0,0.0,85,0.00,,,0.00,WUHU216DAVISVP2,2013-09-29 04:37:00,
2013-09-29 00:42:00,56.2,51.8,30.15,WNW,301,0.0,0.0,85,0.00,,,0.00,WUHU216DAVISVP2,2013-09-29 04:42:00,
2013-09-29 00:47:00,56.2,51.8,30.15,WNW,301,0.0,0.0,85,0.00,,,0.00,WUHU216DAVISVP2,2013-09-29 04:47:00,
2013-09-29 00:52:00,56.0,51.6,30.15,WNW,301,0.0,0.0,85,0.00,,,0.00,WUHU216DAVISVP2,2013-09-29 04:52:00,
2013-09-29 00:57:00,56.0,51.6,30.15,WNW,301,0.0,0.0,85,0.00,,,0.00,WUHU216DAVISVP2,2013-09-29 04:57:00,
2013-09-29 01:02:00,55.9,51.5,30.15,WNW,301,0.0,0.0,85,0.00,,,0.00,WUHU216DAVISVP2,2013-09-29 05:02:00,
2013-09-29 01:07:00,55.9,51.5,30.15,WNW,301,0.0,0.0,85,0.00,,,0.00,WUHU216DAVISVP2,2013-09-29 05:07:00,
2013-09-29 01:12:00,55.9,51.5,30.14,WNW,301,0.0,0.0,85,0.00,,,0.00,WUHU216DAVISVP2,2013-09-29 05:12:00,
2013-09-29 01:17:00,56.0,51.9,30.14,WNW,301,0.0,0.0,86,0.00,,,0.00,WUHU216DAVISVP2,2013-09-29 05:17:00,
2013-09-29 01:22:00,56.0,51.9,30.14,WNW,301,0.0,0.0,86,0.00,,,0.00,WUHU216DAVISVP2,2013-09-29 05:22:00,
2013-09-29 01:27:00,56.2,52.1,30.14,WNW,301,0.0,0.0,86,0.00,,,0.00,WUHU216DAVISVP2,2013-09-29 05:27:00,
2013-09-29 01:32:00,56.3,52.2,30.14,WNW,301,0.0,0.0,86,0.00,,,0.00,WUHU216DAVISVP2,2013-09-29 05:32:00,
2013-09-29 01:37:00,56.2,52.1,30.14,WNW,301,0.0,0.0,86,0.00,,,0.00,WUHU216DAVISVP2,2013-09-29 05:37:00,
2013-09-29 01:42:00,55.9,51.8,30.14,WNW,301,0.0,0.0,86,0.00,,,0.00,WUHU216DAVISVP2,2013-09-29 05:42:00,
2013-09-29 01:47:00,55.7,51.6,30.14,WNW,301,0.0,0.0,86,0.00,,,0.00,WUHU216DAVISVP2,2013-09-29 05:47:00,
2013-09-29 01:52:00,55.7,51.6,30.14,WNW,301,0.0,0.0,86,0.00,,,0.00,WUHU216DAVISVP2,2013-09-29 05:52:00,
2013-09-29 01:57:00,55.6,51.8,30.14,WNW,301,0.0,0.0,87,0.00,,,0.00,WUHU216DAVISVP2,2013-09-29 05:57:00,
2013-09-29 02:02:00,55.6,51.8,30.14,WNW,301,0.0,0.0,87,0.00,,,0.00,WUHU216DAVISVP2,2013-09-29 06:02:00,
2013-09-29 02:07:00,55.4,51.6,30.14,WNW,301,0.0,0.0,87,0.00,,,0.00,WUHU216DAVISVP2,2013-09-29 06:07:00,
2013-09-29 02:12:00,55.3,51.5,30.14,WNW,301,0.0,0.0,87,0.00,,,0.00,WUHU216DAVISVP2,2013-09-29 06:12:00,
2013-09-29 02:17:00,55.1,51.3,30.14,WNW,301,0.0,0.0,87,0.00,,,0.00,WUHU216DAVISVP2,2013-09-29 06:17:00,
2013-09-29 02:22:00,55.1,51.3,30.14,WNW,301,0.0,0.0,87,0.00,,,0.00,WUHU216DAVISVP2,2013-09-29 06:22:00,
2013-09-29 02:27:00,55.1,51.3,30.13,WNW,301,0.0,0.0,87,0.00,,,0.00,WUHU216DAVISVP2,2013-09-29 06:27:00,
2013-09-29 02:32:00,55.3,51.5,30.13,WNW,301,0.0,0.0,87,0.00,,,0.00,WUHU216DAVISVP2,2013-09-29 06:32:00,
2013-09-29 02:37:00,55.4,51.9,30.13,WNW,301,0.0,0.0,88,0.00,,,0.00,WUHU216DAVISVP2,2013-09-29 06:37:00,
2013-09-29 02:42:00,55.4,51.9,30.13,WNW,301,0.0,0.0,88,0.00,,,0.00,WUHU216DAVISVP2,2013-09-29 06:42:00,
2013-09-29 02:47:00,55.4,51.9,30.13,WNW,301,0.0,0.0,88,0.00,,,0.00,WUHU216DAVISVP2,2013-09-29 06:47:00,
2013-09-29 02:52:00,55.4,51.9,30.13,WNW,301,0.0,0.0,88,0.00,,,0.00,WUHU216DAVISVP2,2013-09-29 06:52:00,
2013-09-29 02:57:00,55.4,51.9,30.13,WNW,301,0.0,0.0,88,0.00,,,0.00,WUHU216DAVISVP2,2013-09-29 06:57:00,
2013-09-29 03:02:00,55.4,51.9,30.13,WNW,301,0.0,0.0,88,0.00,,,0.00,WUHU216DAVISVP2,2013-09-29 07:02:00,
2013-09-29 03:07:00,55.1,51.6,30.13,WNW,301,0.0,0.0,88,0.00,,,0.00,WUHU216DAVISVP2,2013-09-29 07:07:00,
2013-09-29 03:12:00,55.0,51.5,30.12,WNW,301,0.0,0.0,88,0.00,,,0.00,WUHU216DAVISVP2,2013-09-29 07:12:00,
2013-09-29 03:17:00,54.8,51.3,30.12,WNW,301,0.0,0.0,88,0.00,,,0.00,WUHU216DAVISVP2,2013-09-29 07:17:00,
2013-09-29 03:22:00,54.7,51.2,30.12,WNW,301,0.0,0.0,88,0.00,,,0.00,WUHU216DAVISVP2,2013-09-29 07:22:00,
2013-09-29 03:27:00,54.5,51.0,30.12,WNW,301,0.0,0.0,88,0.00,,,0.00,WUHU216DAVISVP2,2013-09-29 07:27:00,
2013-09-29 03:32:00,54.4,50.9,30.12,WNW,301,0.0,0.0,88,0.00,,,0.00,WUHU216DAVISVP2,2013-09-29 07:32:00,
2013-09-29 03:37:00,54.2,50.7,30.12,WNW,301,0.0,0.0,88,0.00,,,0.00,WUHU216DAVISVP2,2013-09-29 07:37:00,
2013-09-29 03:42:00,54.1,50.6,30.12,WNW,301,0.0,0.0,88,0.00,,,0.00,WUHU216DAVISVP2,2013-09-29 07:42:00,
2013-09-29 03:47:00,53.8,50.3,30.12,WNW,301,0.0,0.0,88,0.00,,,0.00,WUHU216DAVISVP2,2013-09-29 07:47:00,
2013-09-29 03:52:00,53.8,50.3,30.12,WNW,301,0.0,0.0,88,0.00,,,0.00,WUHU216DAVISVP2,2013-09-29 07:52:00,
2013-09-29 03:57:00,53.6,50.1,30.12,WNW,301,0.0,0.0,88,0.00,,,0.00,WUHU216DAVISVP2,2013-09-29 07:57:00,
2013-09-29 04:02:00,53.6,50.1,30.12,WNW,301,0.0,0.0,88,0.00,,,0.00,WUHU216DAVISVP2,2013-09-29 08:02:00,
2013-09-29 04:07:00,53.5,50.0,30.12,WNW,301,0.0,0.0,88,0.00,,,0.00,WUHU216DAVISVP2,2013-09-29 08:07:00,
2013-09-29 04:12:00,53.3,49.8,30.12,WNW,301,0.0,0.0,88,0.00,,,0.00,WUHU216DAVISVP2,2013-09-29 08:12:00,
2013-09-29 04:17:00,53.3,49.8,30.12,WNW,301,0.0,0.0,88,0.00,,,0.00,WUHU216DAVISVP2,2013-09-29 08:17:00,
2013-09-29 04:22:00,53.2,49.7,30.12,WNW,301,0.0,0.0,88,0.00,,,0.00,WUHU216DAVISVP2,2013-09-29 08:22:00,
2013-09-29 04:27:00,53.3,49.8,30.11,WNW,301,0.0,0.0,88,0.00,,,0.00,WUHU216DAVISVP2,2013-09-29 08:27:00,
2013-09-29 04:32:00,53.2,49.7,30.11,WNW,301,0.0,0.0,88,0.00,,,0.00,WUHU216DAVISVP2,2013-09-29 08:32:00,
2013-09-29 04:37:00,53.2,49.7,30.11,WNW,301,0.0,0.0,88,0.00,,,0.00,WUHU216DAVISVP2,2013-09-29 08:37:00,
2013-09-29 04:42:00,53.3,49.8,30.11,WNW,301,0.0,0.0,88,0.00,,,0.00,WUHU216DAVISVP2,2013-09-29 08:42:00,
2013-09-29 04:47:00,53.2,49.7,30.11,WNW,301,0.0,0.0,88,0.00,,,0.00,WUHU216DAVISVP2,2013-09-29 08:47:00,
2013-09-29 04:52:00,53.1,49.6,30.11,WNW,301,0.0,0.0,88,0.00,,,0.00,WUHU216DAVISVP2,2013-09-29 08:52:00,
2013-09-29 04:57:00,53.1,49.6,30.11,WNW,301,0.0,0.0,88,0.00,,,0.00,WUHU216DAVISVP2,2013-09-29 08:57:00,
2013-09-29 05:02:00,53.1,49.9,30.11,WNW,301,0.0,0.0,89,0.00,,,0.00,WUHU216DAVISVP2,2013-09-29 09:02:00,
2013-09-29 05:07:00,52.9,49.7,30.11,WNW,301,0.0,0.0,89,0.00,,,0.00,WUHU216DAVISVP2,2013-09-29 09:07:00,
2013-09-29 05:12:00,53.1,49.9,30.11,WNW,301,0.0,0.0,89,0.00,,,0.00,WUHU216DAVISVP2,2013-09-29 09:12:00,
2013-09-29 05:17:00,53.1,49.9,30.11,WNW,301,0.0,0.0,89,0.00,,,0.00,WUHU216DAVISVP2,2013-09-29 09:17:00,
2013-09-29 05:22:00,52.9,49.7,30.11,WNW,301,0.0,0.0,89,0.00,,,0.00,WUHU216DAVISVP2,2013-09-29 09:22:00,
2013-09-29 05:27:00,52.9,49.7,30.11,WNW,301,0.0,0.0,89,0.00,,,0.00,WUHU216DAVISVP2,2013-09-29 09:27:00,
2013-09-29 05:32:00,52.9,49.7,30.11,WNW,301,0.0,0.0,89,0.00,,,0.00,WUHU216DAVISVP2,2013-09-29 09:32:00,
2013-09-29 05:37:00,53.1,49.9,30.11,WNW,301,0.0,0.0,89,0.00,,,0.00,WUHU216DAVISVP2,2013-09-29 09:37:00,
2013-09-29 05:42:00,53.1,49.9,30.11,WNW,301,0.0,0.0,89,0.00,,,0.00,WUHU216DAVISVP2,2013-09-29 09:42:00,
2013-09-29 05:47:00,53.1,49.9,30.11,WNW,301,0.0,0.0,89,0.00,,,0.00,WUHU216DAVISVP2,2013-09-29 09:47:00,
2013-09-29 05:52:00,52.9,49.7,30.11,WNW,301,0.0,0.0,89,0.00,,,0.00,WUHU216DAVISVP2,2013-09-29 09:52:00,
2013-09-29 05:57:00,52.9,49.7,30.11,WNW,301,0.0,0.0,89,0.00,,,0.00,WUHU216DAVISVP2,2013-09-29 09:57:00,
2013-09-29 06:02:00,52.6,49.4,30.11,WNW,301,0.0,0.0,89,0.00,,,0.00,WUHU216DAVISVP2,2013-09-29 10:02:00,
2013-09-29 06:07:00,52.6,49.4,30.11,WNW,301,0.0,0.0,89,0.00,,,0.00,WUHU216DAVISVP2,2013-09-29 10:07:00,
2013-09-29 06:12:00,52.5,49.3,30.12,WNW,301,0.0,0.0,89,0.00,,,0.00,WUHU216DAVISVP2,2013-09-29 10:12:00,
2013-09-29 06:17:00,52.3,49.1,30.12,WNW,301,0.0,0.0,89,0.00,,,0.00,WUHU216DAVISVP2,2013-09-29 10:17:00,
2013-09-29 06:22:00,52.3,49.1,30.12,WNW,301,0.0,0.0,89,0.00,,,0.00,WUHU216DAVISVP2,2013-09-29 10:22:00,
2013-09-29 06:28:00,52.3,49.1,30.13,WNW,301,0.0,0.0,89,0.00,,,0.00,WUHU216DAVISVP2,2013-09-29 10:28:00,
2013-09-29 06:33:00,52.3,49.1,30.13,WNW,301,0.0,0.0,89,0.00,,,0.00,WUHU216DAVISVP2,2013-09-29 10:33:00,
2013-09-29 06:38:00,52.2,49.0,30.13,WNW,301,0.0,0.0,89,0.00,,,0.00,WUHU216DAVISVP2,2013-09-29 10:38:00,
2013-09-29 06:43:00,52.0,48.8,30.13,WNW,301,0.0,0.0,89,0.00,,,0.00,WUHU216DAVISVP2,2013-09-29 10:43:00,
2013-09-29 06:48:00,51.9,48.7,30.13,WNW,301,0.0,0.0,89,0.00,,,0.00,WUHU216DAVISVP2,2013-09-29 10:48:00,
2013-09-29 06:53:00,52.0,48.8,30.13,WNW,301,0.0,0.0,89,0.00,,,0.00,WUHU216DAVISVP2,2013-09-29 10:53:00,
2013-09-29 06:58:00,52.2,49.3,30.13,WNW,301,0.0,0.0,90,0.00,,,0.00,WUHU216DAVISVP2,2013-09-29 10:58:00,
2013-09-29 07:03:00,52.5,49.6,30.13,WNW,301,0.0,0.0,90,0.00,,,0.00,WUHU216DAVISVP2,2013-09-29 11:03:00,
2013-09-29 07:08:00,52.6,49.7,30.13,WNW,301,0.0,0.0,90,0.00,,,0.00,WUHU216DAVISVP2,2013-09-29 11:08:00,
2013-09-29 07:13:00,52.6,49.7,30.13,WNW,301,0.0,0.0,90,0.00,,,0.00,WUHU216DAVISVP2,2013-09-29 11:13:00,
2013-09-29 07:18:00,52.8,49.9,30.13,WNW,301,0.0,0.0,90,0.00,,,0.00,WUHU216DAVISVP2,2013-09-29 11:18:00,
2013-09-29 07:23:00,52.8,49.9,30.14,WNW,301,0.0,0.0,90,0.00,,,0.00,WUHU216DAVISVP2,2013-09-29 11:23:00,
2013-09-29 07:28:00,52.8,49.9,30.14,WNW,301,0.0,0.0,90,0.00,,,0.00,WUHU216DAVISVP2,2013-09-29 11:28:00,
2013-09-29 07:33:00,52.8,49.9,30.14,WNW,301,0.0,0.0,90,0.00,,,0.00,WUHU216DAVISVP2,2013-09-29 11:33:00,
2013-09-29 07:38:00,52.8,49.9,30.14,WNW,301,0.0,0.0,90,0.00,,,0.00,WUHU216DAVISVP2,2013-09-29 11:38:00,
2013-09-29 07:43:00,52.8,49.9,30.14,WNW,301,0.0,0.0,90,0.00,,,0.00,WUHU216DAVISVP2,2013-09-29 11:43:00,
2013-09-29 07:48:00,52.9,50.0,30.14,WNW,301,0.0,0.0,90,0.00,,,0.00,WUHU216DAVISVP2,2013-09-29 11:48:00,
2013-09-29 07:53:00,52.9,50.0,30.14,WNW,301,0.0,0.0,90,0.00,,,0.00,WUHU216DAVISVP2,2013-09-29 11:53:00,
2013-09-29 07:58:00,53.3,50.4,30.14,WNW,301,0.0,0.0,90,0.00,,,0.00,WUHU216DAVISVP2,2013-09-29 11:58:00,
2013-09-29 08:04:00,54.1,51.5,30.14,WNW,302,0.0,0.0,91,0.00,,,0.00,WUHU216DAVISVP2,2013-09-29 12:04:00,
2013-09-29 08:09:00,54.7,52.1,30.14,WNW,302,0.0,0.0,91,0.00,,,0.00,WUHU216DAVISVP2,2013-09-29 12:09:00,
2013-09-29 08:13:00,55.3,52.7,30.14,WNW,302,0.0,0.0,91,0.00,,,0.00,WUHU216DAVISVP2,2013-09-29 12:13:00,
2013-09-29 08:18:00,55.7,53.1,30.14,WNW,302,0.0,0.0,91,0.00,,,0.00,WUHU216DAVISVP2,2013-09-29 12:18:00,
2013-09-29 08:24:00,56.0,53.4,30.14,WNW,302,0.0,0.0,91,0.00,,,0.00,WUHU216DAVISVP2,2013-09-29 12:24:00,
2013-09-29 08:29:00,56.3,53.7,30.14,NNW,330,0.0,0.0,91,0.00,,,0.00,WUHU216DAVISVP2,2013-09-29 12:29:00,
2013-09-29 08:34:00,56.3,53.7,30.14,NNW,330,0.0,0.0,91,0.00,,,0.00,WUHU216DAVISVP2,2013-09-29 12:34:00,
2013-09-29 08:39:00,57.3,54.7,30.14,NNW,330,0.0,0.0,91,0.00,,,0.00,WUHU216DAVISVP2,2013-09-29 12:39:00,
2013-09-29 08:44:00,57.5,54.9,30.14,NNW,343,0.0,0.0,91,0.00,,,0.00,WUHU216DAVISVP2,2013-09-29 12:44:00,
2013-09-29 08:49:00,58.1,55.5,30.14,NNW,343,0.0,0.0,91,0.00,,,0.00,WUHU216DAVISVP2,2013-09-29 12:49:00,
2013-09-29 08:54:00,58.3,55.6,30.13,North,357,0.0,0.0,91,0.00,,,0.00,WUHU216DAVISVP2,2013-09-29 12:54:00,
2013-09-29 08:59:00,58.4,55.7,30.13,North,356,0.0,0.0,91,0.00,,,0.00,WUHU216DAVISVP2,2013-09-29 12:59:00,
2013-09-29 09:04:00,58.6,55.9,30.13,North,356,0.0,0.0,91,0.00,,,0.00,WUHU216DAVISVP2,2013-09-29 13:04:00,
2013-09-29 09:09:00,58.9,56.2,30.13,North,352,0.0,0.0,91,0.00,,,0.00,WUHU216DAVISVP2,2013-09-29 13:09:00,
2013-09-29 09:14:00,59.2,56.5,30.13,NNW,333,1.0,2.0,91,0.00,,,0.00,WUHU216DAVISVP2,2013-09-29 13:14:00,
2013-09-29 09:19:00,59.3,56.6,30.13,North,0,0.0,2.0,91,0.00,,,0.00,WUHU216DAVISVP2,2013-09-29 13:19:00,
2013-09-29 09:24:00,59.5,56.8,30.13,North,0,0.0,1.0,91,0.00,,,0.00,WUHU216DAVISVP2,2013-09-29 13:24:00,
2013-09-29 09:36:00,60.4,57.7,30.13,North,0,0.0,0.0,91,0.00,,,0.00,WUHU216DAVISVP2,2013-09-29 13:36:00,
2013-09-29 09:41:00,60.9,58.2,30.13,North,0,0.0,0.0,91,0.00,,,0.00,WUHU216DAVISVP2,2013-09-29 13:41:00,
2013-09-29 09:47:00,60.9,58.2,30.13,WNW,289,0.0,0.0,91,0.00,,,0.00,WUHU216DAVISVP2,2013-09-29 13:47:00,
2013-09-29 09:52:00,61.2,58.5,30.13,North,6,0.0,0.0,91,0.00,,,0.00,WUHU216DAVISVP2,2013-09-29 13:52:00,
2013-09-29 09:57:00,61.6,58.9,30.13,North,354,0.0,0.0,91,0.00,,,0.00,WUHU216DAVISVP2,2013-09-29 13:57:00,
2013-09-29 10:02:00,61.8,59.1,30.13,NNW,339,0.0,0.0,91,0.00,,,0.00,WUHU216DAVISVP2,2013-09-29 14:02:00,
2013-09-29 10:07:00,62.1,59.4,30.13,NNW,342,0.0,0.0,91,0.00,,,0.00,WUHU216DAVISVP2,2013-09-29 14:07:00,
2013-09-29 10:12:00,62.1,59.1,30.13,NNW,347,0.0,0.0,90,0.00,,,0.00,WUHU216DAVISVP2,2013-09-29 14:12:00,
2013-09-29 10:17:00,62.6,59.6,30.13,NNW,343,0.0,0.0,90,0.00,,,0.00,WUHU216DAVISVP2,2013-09-29 14:17:00,
2013-09-29 10:22:00,62.6,59.6,30.13,NNW,340,0.0,0.0,90,0.00,,,0.00,WUHU216DAVISVP2,2013-09-29 14:22:00,
2013-09-29 10:27:00,63.2,59.9,30.12,WNW,301,0.0,0.0,89,0.00,,,0.00,WUHU216DAVISVP2,2013-09-29 14:27:00,
2013-09-29 10:32:00,63.4,59.8,30.12,NW,322,0.0,0.0,88,0.00,,,0.00,WUHU216DAVISVP2,2013-09-29 14:32:00,
2013-09-29 10:37:00,63.7,60.1,30.12,WNW,294,0.0,0.0,88,0.00,,,0.00,WUHU216DAVISVP2,2013-09-29 14:37:00,
2013-09-29 10:42:00,63.7,59.8,30.12,NW,311,0.0,0.0,87,0.00,,,0.00,WUHU216DAVISVP2,2013-09-29 14:42:00,
2013-09-29 10:47:00,64.0,59.7,30.12,NE,47,0.0,0.0,86,0.00,,,0.00,WUHU216DAVISVP2,2013-09-29 14:47:00,
2013-09-29 10:52:00,65.2,60.6,30.12,East,80,0.0,0.0,85,0.00,,,0.00,WUHU216DAVISVP2,2013-09-29 14:52:00,
2013-09-29 10:57:00,65.5,60.2,30.12,East,79,0.0,0.0,83,0.00,,,0.00,WUHU216DAVISVP2,2013-09-29 14:57:00,
2013-09-29 11:02:00,65.8,60.5,30.12,North,0,0.0,0.0,83,0.00,,,0.00,WUHU216DAVISVP2,2013-09-29 15:02:00,
2013-09-29 11:07:00,66.0,60.7,30.12,North,0,0.0,0.0,83,0.00,,,0.00,WUHU216DAVISVP2,2013-09-29 15:07:00,
2013-09-29 11:12:00,66.1,59.8,30.12,NNW,330,0.0,0.0,80,0.00,,,0.00,WUHU216DAVISVP2,2013-09-29 15:12:00,
2013-09-29 11:17:00,66.4,60.1,30.12,NW,305,0.0,0.0,80,0.00,,,0.00,WUHU216DAVISVP2,2013-09-29 15:17:00,
2013-09-29 11:22:00,66.9,60.3,30.12,North,359,0.0,0.0,79,0.00,,,0.00,WUHU216DAVISVP2,2013-09-29 15:22:00,
2013-09-29 11:27:00,67.3,59.6,30.11,North,357,0.0,0.0,76,0.00,,,0.00,WUHU216DAVISVP2,2013-09-29 15:27:00,
2013-09-29 11:32:00,67.8,60.1,30.11,NW,309,0.0,0.0,76,0.00,,,0.00,WUHU216DAVISVP2,2013-09-29 15:32:00,
2013-09-29 11:37:00,68.1,60.0,30.11,NW,326,0.0,0.0,75,0.00,,,0.00,WUHU216DAVISVP2,2013-09-29 15:37:00,
2013-09-29 11:42:00,68.4,60.3,30.11,NNE,24,0.0,0.0,75,0.00,,,0.00,WUHU216DAVISVP2,2013-09-29 15:42:00,
2013-09-29 11:47:00,69.1,60.6,30.11,NW,323,0.0,0.0,74,0.00,,,0.00,WUHU216DAVISVP2,2013-09-29 15:47:00,
2013-09-29 11:52:00,69.1,60.2,30.11,NW,315,0.0,0.0,73,0.00,,,0.00,WUHU216DAVISVP2,2013-09-29 15:52:00,
2013-09-29 11:57:00,69.4,59.8,30.11,NNW,332,0.0,0.0,71,0.00,,,0.00,WUHU216DAVISVP2,2013-09-29 15:57:00,
2013-09-29 12:02:00,69.8,60.5,30.11,NE,40,0.0,0.0,72,0.00,,,0.00,WUHU216DAVISVP2,2013-09-29 16:02:00,
2013-09-29 12:07:00,69.8,59.7,30.11,NNW,346,0.0,0.0,70,0.00,,,0.00,WUHU216DAVISVP2,2013-09-29 16:07:00,
2013-09-29 12:12:00,70.3,60.2,30.10,NNW,330,0.0,0.0,70,0.00,,,0.00,WUHU216DAVISVP2,2013-09-29 16:12:00,
2013-09-29 12:17:00,70.6,59.3,30.10,NW,316,0.0,0.0,67,0.00,,,0.00,WUHU216DAVISVP2,2013-09-29 16:17:00,
2013-09-29 12:23:00,70.9,59.6,30.10,NE,40,0.0,0.0,67,0.00,,,0.00,WUHU216DAVISVP2,2013-09-29 16:23:00,
2013-09-29 12:28:00,71.1,58.9,30.10,NNE,23,0.0,0.0,65,0.00,,,0.00,WUHU216DAVISVP2,2013-09-29 16:28:00,
2013-09-29 12:33:00,71.6,59.0,30.10,WSW,251,0.0,0.0,64,0.00,,,0.00,WUHU216DAVISVP2,2013-09-29 16:33:00,
2013-09-29 12:38:00,71.6,58.5,30.09,NE,42,0.0,0.0,63,0.00,,,0.00,WUHU216DAVISVP2,2013-09-29 16:38:00,
2013-09-29 12:43:00,71.8,58.7,30.09,WNW,299,0.0,0.0,63,0.00,,,0.00,WUHU216DAVISVP2,2013-09-29 16:43:00,
2013-09-29 12:48:00,72.5,58.9,30.09,NW,326,0.0,0.0,62,0.00,,,0.00,WUHU216DAVISVP2,2013-09-29 16:48:00,
2013-09-29 12:53:00,72.5,58.0,30.09,WNW,285,0.0,0.0,60,0.00,,,0.00,WUHU216DAVISVP2,2013-09-29 16:53:00,
2013-09-29 12:58:00,72.5,58.5,30.09,North,0,0.0,0.0,61,0.00,,,0.00,WUHU216DAVISVP2,2013-09-29 16:58:00,
2013-09-29 13:03:00,72.7,57.7,30.09,ENE,72,0.0,0.0,59,0.00,,,0.00,WUHU216DAVISVP2,2013-09-29 17:03:00,
2013-09-29 13:08:00,72.7,58.2,30.08,North,357,0.0,0.0,60,0.00,,,0.00,WUHU216DAVISVP2,2013-09-29 17:08:00,
2013-09-29 13:14:00,72.7,57.7,30.08,NW,305,0.0,0.0,59,0.00,,,0.00,WUHU216DAVISVP2,2013-09-29 17:14:00,
2013-09-29 13:19:00,73.0,58.5,30.08,NW,311,0.0,0.0,60,0.00,,,0.00,WUHU216DAVISVP2,2013-09-29 17:19:00,
2013-09-29 13:24:00,73.0,57.0,30.07,NNW,343,0.0,0.0,57,0.00,,,0.00,WUHU216DAVISVP2,2013-09-29 17:24:00,
2013-09-29 13:29:00,73.2,57.2,30.07,WNW,298,0.0,0.0,57,0.00,,,0.00,WUHU216DAVISVP2,2013-09-29 17:29:00,
2013-09-29 13:34:00,73.3,57.3,30.07,ENE,66,0.0,0.0,57,0.00,,,0.00,WUHU216DAVISVP2,2013-09-29 17:34:00,
2013-09-29 13:39:00,73.3,57.3,30.06,North,352,0.0,0.0,57,0.00,,,0.00,WUHU216DAVISVP2,2013-09-29 17:39:00,
2013-09-29 13:44:00,73.5,56.5,30.06,WSW,243,0.0,0.0,55,0.00,,,0.00,WUHU216DAVISVP2,2013-09-29 17:44:00,
2013-09-29 13:49:00,73.7,57.7,30.06,NNW,333,0.0,0.0,57,0.00,,,0.00,WUHU216DAVISVP2,2013-09-29 17:49:00,
2013-09-29 13:54:00,73.7,56.7,30.05,North,350,0.0,0.0,55,0.00,,,0.00,WUHU216DAVISVP2,2013-09-29 17:54:00,
2013-09-29 13:59:00,73.5,56.5,30.05,West,274,0.0,0.0,55,0.00,,,0.00,WUHU216DAVISVP2,2013-09-29 17:59:00,
2013-09-29 14:04:00,73.7,56.2,30.05,SE,143,0.0,0.0,54,0.00,,,0.00,WUHU216DAVISVP2,2013-09-29 18:04:00,
2013-09-29 14:09:00,73.9,56.9,30.04,NW,323,0.0,0.0,55,0.00,,,0.00,WUHU216DAVISVP2,2013-09-29 18:09:00,
2013-09-29 14:14:00,74.4,56.3,30.04,ESE,120,0.0,0.0,53,0.00,,,0.00,WUHU216DAVISVP2,2013-09-29 18:14:00,
2013-09-29 14:19:00,74.4,56.3,30.04,North,0,0.0,0.0,53,0.00,,,0.00,WUHU216DAVISVP2,2013-09-29 18:19:00,
2013-09-29 14:24:00,74.2,56.6,30.03,East,80,0.0,0.0,54,0.00,,,0.00,WUHU216DAVISVP2,2013-09-29 18:24:00,
2013-09-29 14:29:00,74.4,56.3,30.03,ENE,78,0.0,0.0,53,0.00,,,0.00,WUHU216DAVISVP2,2013-09-29 18:29:00,
2013-09-29 14:34:00,74.7,56.0,30.03,NW,313,0.0,0.0,52,0.00,,,0.00,WUHU216DAVISVP2,2013-09-29 18:34:00,
2013-09-29 14:39:00,74.7,56.0,30.03,NW,313,0.0,0.0,52,0.00,,,0.00,WUHU216DAVISVP2,2013-09-29 18:39:00,
2013-09-29 14:44:00,75.1,56.4,30.03,WNW,298,0.0,0.0,52,0.00,,,0.00,WUHU216DAVISVP2,2013-09-29 18:44:00,
2013-09-29 14:49:00,74.7,56.0,30.03,NNE,24,0.0,0.0,52,0.00,,,0.00,WUHU216DAVISVP2,2013-09-29 18:49:00,
2013-09-29 14:54:00,74.7,56.0,30.03,NE,45,0.0,0.0,52,0.00,,,0.00,WUHU216DAVISVP2,2013-09-29 18:54:00,
2013-09-29 14:59:00,74.6,55.9,30.03,NNW,337,0.0,0.0,52,0.00,,,0.00,WUHU216DAVISVP2,2013-09-29 18:59:00,
2013-09-29 15:04:00,74.6,55.9,30.03,NNW,337,0.0,0.0,52,0.00,,,0.00,WUHU216DAVISVP2,2013-09-29 19:04:00,
2013-09-29 15:09:00,74.0,54.8,30.02,NNE,17,0.0,0.0,51,0.00,,,0.00,WUHU216DAVISVP2,2013-09-29 19:09:00,
2013-09-29 15:14:00,74.2,55.6,30.02,NNE,24,0.0,0.0,52,0.00,,,0.00,WUHU216DAVISVP2,2013-09-29 19:14:00,
2013-09-29 15:19:00,74.4,55.7,30.02,ENE,73,0.0,0.0,52,0.00,,,0.00,WUHU216DAVISVP2,2013-09-29 19:19:00,
2013-09-29 15:25:00,74.2,55.0,30.02,NNE,28,0.0,0.0,51,0.00,,,0.00,WUHU216DAVISVP2,2013-09-29 19:25:00,
2013-09-29 15:30:00,74.4,55.7,30.02,NNE,28,0.0,0.0,52,0.00,,,0.00,WUHU216DAVISVP2,2013-09-29 19:30:00,
2013-09-29 15:35:00,74.6,55.9,30.02,WNW,296,0.0,0.0,52,0.00,,,0.00,WUHU216DAVISVP2,2013-09-29 19:35:00,
2013-09-29 15:40:00,75.1,56.4,30.01,East,88,0.0,0.0,52,0.00,,,0.00,WUHU216DAVISVP2,2013-09-29 19:40:00,
2013-09-29 15:45:00,75.1,56.4,30.01,ESE,104,0.0,0.0,52,0.00,,,0.00,WUHU216DAVISVP2,2013-09-29 19:45:00,
2013-09-29 15:48:00,75.1,56.4,30.01,ESE,104,0.0,0.0,52,0.00,,,0.00,WUHU216DAVISVP2,2013-09-29 19:48:00,
2013-09-29 18:57:00,66.1,55.0,30.02,NNW,340,0.0,0.0,67,0.00,,,0.00,WUHU216DAVISVP2,2013-09-29 22:57:00,
2013-09-29 19:02:00,65.8,54.7,30.02,NNW,340,0.0,0.0,67,0.00,,,0.00,WUHU216DAVISVP2,2013-09-29 23:02:00,
2013-09-29 19:07:00,65.3,54.1,30.02,NNW,340,0.0,0.0,67,0.00,,,0.00,WUHU216DAVISVP2,2013-09-29 23:07:00,
2013-09-29 19:12:00,65.0,53.8,30.02,NNW,340,0.0,0.0,67,0.00,,,0.00,WUHU216DAVISVP2,2013-09-29 23:12:00,
2013-09-29 19:18:00,64.8,54.4,30.02,NNW,340,0.0,0.0,69,0.00,,,0.00,WUHU216DAVISVP2,2013-09-29 23:18:00,
2013-09-29 19:23:00,64.3,54.5,30.02,NNW,340,0.0,0.0,70,0.00,,,0.00,WUHU216DAVISVP2,2013-09-29 23:23:00,
2013-09-29 19:28:00,64.0,54.2,30.02,NNW,340,0.0,0.0,70,0.00,,,0.00,WUHU216DAVISVP2,2013-09-29 23:28:00,
2013-09-29 19:33:00,63.7,54.3,30.02,NNW,340,0.0,0.0,71,0.00,,,0.00,WUHU216DAVISVP2,2013-09-29 23:33:00,
2013-09-29 19:38:00,63.4,54.0,30.02,NNW,340,0.0,0.0,71,0.00,,,0.00,WUHU216DAVISVP2,2013-09-29 23:38:00,
2013-09-29 19:43:00,63.1,54.4,30.02,NNW,340,0.0,0.0,73,0.00,,,0.00,WUHU216DAVISVP2,2013-09-29 23:43:00,
2013-09-29 19:48:00,62.7,54.4,30.02,NNW,340,0.0,0.0,74,0.00,,,0.00,WUHU216DAVISVP2,2013-09-29 23:48:00,
2013-09-29 19:53:00,62.4,54.1,30.02,NNW,340,0.0,0.0,74,0.00,,,0.00,WUHU216DAVISVP2,2013-09-29 23:53:00,
2013-09-29 19:58:00,62.3,54.7,30.02,NNW,340,0.0,0.0,76,0.00,,,0.00,WUHU216DAVISVP2,2013-09-29 23:58:00,
2013-09-29 20:03:00,62.1,54.2,30.02,NNW,340,0.0,0.0,75,0.00,,,0.00,WUHU216DAVISVP2,2013-09-30 00:03:00,
2013-09-29 20:09:00,62.0,54.1,30.03,NNW,340,0.0,0.0,75,0.00,,,0.00,WUHU216DAVISVP2,2013-09-30 00:09:00,
2013-09-29 20:14:00,61.6,54.1,30.03,NNW,340,0.0,0.0,76,0.00,,,0.00,WUHU216DAVISVP2,2013-09-30 00:14:00,
2013-09-29 20:19:00,61.3,53.7,30.03,NNW,340,0.0,0.0,76,0.00,,,0.00,WUHU216DAVISVP2,2013-09-30 00:19:00,
2013-09-29 20:24:00,61.2,53.9,30.03,NNW,340,0.0,0.0,77,0.00,,,0.00,WUHU216DAVISVP2,2013-09-30 00:24:00,
2013-09-29 20:29:00,61.0,54.1,30.03,NNW,340,0.0,0.0,78,0.00,,,0.00,WUHU216DAVISVP2,2013-09-30 00:29:00,
2013-09-29 20:34:00,60.9,54.1,30.03,NNW,340,0.0,0.0,78,0.00,,,0.00,WUHU216DAVISVP2,2013-09-30 00:34:00,
2013-09-29 20:39:00,60.9,54.4,30.03,NNW,340,0.0,0.0,79,0.00,,,0.00,WUHU216DAVISVP2,2013-09-30 00:39:00,
2013-09-29 20:44:00,60.9,54.4,30.03,NNW,340,0.0,0.0,79,0.00,,,0.00,WUHU216DAVISVP2,2013-09-30 00:44:00,
2013-09-29 20:49:00,60.9,54.4,30.03,NNW,340,0.0,0.0,79,0.00,,,0.00,WUHU216DAVISVP2,2013-09-30 00:49:00,
2013-09-29 20:54:00,61.0,54.8,30.03,NNW,340,0.0,0.0,80,0.00,,,0.00,WUHU216DAVISVP2,2013-09-30 00:54:00,
2013-09-29 20:59:00,61.0,54.8,30.03,NNW,340,0.0,0.0,80,0.00,,,0.00,WUHU216DAVISVP2,2013-09-30 00:59:00,
2013-09-29 21:04:00,61.2,55.0,30.03,NNW,340,0.0,0.0,80,0.00,,,0.00,WUHU216DAVISVP2,2013-09-30 01:04:00,
2013-09-29 21:09:00,61.5,55.3,30.03,NNW,340,0.0,0.0,80,0.00,,,0.00,WUHU216DAVISVP2,2013-09-30 01:09:00,
2013-09-29 21:14:00,61.8,55.6,30.03,NNW,340,0.0,0.0,80,0.00,,,0.00,WUHU216DAVISVP2,2013-09-30 01:14:00,
2013-09-29 21:19:00,62.0,55.8,30.03,NNW,340,0.0,0.0,80,0.00,,,0.00,WUHU216DAVISVP2,2013-09-30 01:19:00,
2013-09-29 21:24:00,62.0,55.8,30.03,NNW,340,0.0,0.0,80,0.00,,,0.00,WUHU216DAVISVP2,2013-09-30 01:24:00,
2013-09-29 21:29:00,61.8,55.6,30.03,NNW,340,0.0,0.0,80,0.00,,,0.00,WUHU216DAVISVP2,2013-09-30 01:29:00,
2013-09-29 21:34:00,61.8,55.6,30.03,NNW,340,0.0,0.0,80,0.00,,,0.00,WUHU216DAVISVP2,2013-09-30 01:34:00,
2013-09-29 21:39:00,61.6,55.4,30.03,NNW,340,0.0,0.0,80,0.00,,,0.00,WUHU216DAVISVP2,2013-09-30 01:39:00,
2013-09-29 21:45:00,61.3,55.1,30.03,NNW,340,0.0,0.0,80,0.00,,,0.00,WUHU216DAVISVP2,2013-09-30 01:45:00,
2013-09-29 21:51:00,61.2,55.0,30.03,NNW,340,0.0,0.0,80,0.00,,,0.00,WUHU216DAVISVP2,2013-09-30 01:51:00,
2013-09-29 21:57:00,60.9,54.7,30.03,NNW,340,0.0,0.0,80,0.00,,,0.00,WUHU216DAVISVP2,2013-09-30 01:57:00,
2013-09-29 22:02:00,60.7,54.6,30.03,NNW,340,0.0,0.0,80,0.00,,,0.00,WUHU216DAVISVP2,2013-09-30 02:02:00,
2013-09-29 22:07:00,60.5,54.6,30.03,NNW,340,0.0,0.0,81,0.00,,,0.00,WUHU216DAVISVP2,2013-09-30 02:07:00,
2013-09-29 22:12:00,60.2,54.3,30.02,NNW,340,0.0,0.0,81,0.00,,,0.00,WUHU216DAVISVP2,2013-09-30 02:12:00,
2013-09-29 22:17:00,60.1,54.2,30.02,NNW,340,0.0,0.0,81,0.00,,,0.00,WUHU216DAVISVP2,2013-09-30 02:17:00,
2013-09-29 22:22:00,59.9,54.1,30.02,NNW,340,0.0,0.0,81,0.00,,,0.00,WUHU216DAVISVP2,2013-09-30 02:22:00,
2013-09-29 22:27:00,59.8,54.3,30.02,NNW,340,0.0,0.0,82,0.00,,,0.00,WUHU216DAVISVP2,2013-09-30 02:27:00,
2013-09-29 22:32:00,59.6,53.8,30.02,NNW,340,0.0,0.0,81,0.00,,,0.00,WUHU216DAVISVP2,2013-09-30 02:32:00,
2013-09-29 22:37:00,59.3,53.5,30.02,NNW,340,0.0,0.0,81,0.00,,,0.00,WUHU216DAVISVP2,2013-09-30 02:37:00,
2013-09-29 22:42:00,59.2,53.7,30.02,NNW,340,0.0,0.0,82,0.00,,,0.00,WUHU216DAVISVP2,2013-09-30 02:42:00,
2013-09-29 22:47:00,58.9,53.1,30.02,NNW,340,0.0,0.0,81,0.00,,,0.00,WUHU216DAVISVP2,2013-09-30 02:47:00,
2013-09-29 22:52:00,58.7,53.3,30.02,NNW,340,0.0,0.0,82,0.00,,,0.00,WUHU216DAVISVP2,2013-09-30 02:52:00,
2013-09-29 22:57:00,58.6,53.2,30.02,NNW,340,0.0,0.0,82,0.00,,,0.00,WUHU216DAVISVP2,2013-09-30 02:57:00,
2013-09-29 23:02:00,58.4,53.0,30.02,NNW,340,0.0,0.0,82,0.00,,,0.00,WUHU216DAVISVP2,2013-09-30 03:02:00,
2013-09-29 23:07:00,58.3,52.9,30.02,NNW,340,0.0,0.0,82,0.00,,,0.00,WUHU216DAVISVP2,2013-09-30 03:07:00,
2013-09-29 23:12:00,58.1,53.0,30.02,NNW,340,0.0,0.0,83,0.00,,,0.00,WUHU216DAVISVP2,2013-09-30 03:12:00,
2013-09-29 23:17:00,58.0,52.6,30.02,NNW,340,0.0,0.0,82,0.00,,,0.00,WUHU216DAVISVP2,2013-09-30 03:17:00,
2013-09-29 23:22:00,57.6,52.5,30.02,NNW,340,0.0,0.0,83,0.00,,,0.00,WUHU216DAVISVP2,2013-09-30 03:22:00,
2013-09-29 23:27:00,57.5,52.4,30.02,NNW,340,0.0,0.0,83,0.00,,,0.00,WUHU216DAVISVP2,2013-09-30 03:27:00,
2013-09-29 23:32:00,57.5,52.4,30.02,NNW,340,0.0,0.0,83,0.00,,,0.00,WUHU216DAVISVP2,2013-09-30 03:32:00,
2013-09-29 23:37:00,57.3,52.2,30.02,NNW,340,0.0,0.0,83,0.00,,,0.00,WUHU216DAVISVP2,2013-09-30 03:37:00,
2013-09-29 23:42:00,57.2,52.1,30.02,NNW,340,0.0,0.0,83,0.00,,,0.00,WUHU216DAVISVP2,2013-09-30 03:42:00,
2013-09-29 23:47:00,57.2,52.4,30.02,NNW,340,0.0,0.0,84,0.00,,,0.00,WUHU216DAVISVP2,2013-09-30 03:47:00,
2013-09-29 23:52:00,57.2,52.4,30.02,NNW,340,0.0,0.0,84,0.00,,,0.00,WUHU216DAVISVP2,2013-09-30 03:52:00,
2013-09-29 23:57:00,57.0,51.9,30.02,NNW,340,0.0,0.0,83,0.00,,,0.00,WUHU216DAVISVP2,2013-09-30 03:57:00,